Miscellaneous Local Product
Issued by NWS Hastings, NE

Home | Current Version | Previous Version | Graphics & Text | Print | Product List | Glossary On
Versions: 1 2 3 4 5 6 7 8 9 10 11 12 13 14 15 16 17 18 19 20 21 22 23 24 25 26 27 28 29 30 31 32 33 34 35 36 37 38 39 40 41 42 43 44 45 46 47 48 49 50
000
AXUS43 KGID 270102
MISGRI

GID CWA HOURLY WEATHER ROUNDUP
NATIONAL WEATHER SERVICE HASTINGS NE
800 PM CDT MON SEP 26 2016

NOTE: "FAIR" INDICATES FEW OR NO CLOUDS BELOW 12,000 FEET WITH NO
SIGNIFICANT WEATHER AND/OR OBSTRUCTIONS TO VISIBILITY.

...SOUTH CENTRAL NEBRASKA...

CITY           SKY/WX    TMP DP  RH WIND       PRES   REMARKS
GRAND ISLAND   CLEAR     64  42  44 NW6       30.13R
HASTINGS       CLEAR     64  43  46 N7        30.14R
KEARNEY        CLEAR     68  37  32 N5        30.13S
ORD            CLEAR     57  44  62 NW3       30.12S
YORK           CLEAR     63  45  51 N5        30.11S
AURORA         CLEAR     60  46  59 NW7       30.12R
LEXINGTON      CLEAR     64  43  47 N5        30.15S
HOLDREGE       CLEAR     62  43  49 CALM      30.15R
HEBRON         CLEAR     63  43  48 SW3       30.11S

...NEBRASKA PANHANDLE...

CITY           SKY/WX    TMP DP  RH WIND       PRES   REMARKS
CHADRON        CLEAR     65  42  43 NW6       30.20S
ALLIANCE       CLEAR     63  42  46 N9        30.23R
SCOTTSBLUFF    CLEAR     63  44  50 N7        30.24S
SIDNEY         CLEAR     60  40  47 N6        30.27S

...WESTERN AND NORTH CENTRAL NEBRASKA...

CITY           SKY/WX    TMP DP  RH WIND       PRES   REMARKS
VALENTINE      CLEAR     63  38  39 W7        30.14S
AINSWORTH      CLEAR     64  42  44 NW5       30.15S
ONEILL         CLEAR     62  40  43 N5        30.12F
BROKEN BOW     CLEAR     59  41  51 N5        30.15R
IMPERIAL       CLEAR     67  39  35 N5        30.21R
NORTH PLATTE   CLEAR     61  44  53 W3        30.17R
MCCOOK         CLEAR     68  41  37 NW8       30.17R

...EASTERN NEBRASKA...

CITY           SKY/WX    TMP DP  RH WIND       PRES   REMARKS
NORFOLK        CLEAR     62  40  44 NW5       30.10R
SO SIOUX CITY  CLEAR     63  44  50 W7        30.06S
TEKAMAH        CLEAR     58  47  66 NW8       30.07R
COLUMBUS       CLEAR     61  39  44 CALM      30.11R
ALBION         CLEAR     63  40  42 N6        30.12R
OMAHA EPPLEY   CLEAR     66  49  54 CALM      30.06R
OFFUTT AFB     CLEAR     59  49  71 NW2       30.05S
MILLARD        CLEAR     62  49  61 CALM      30.06S
LINCOLN        CLEAR     70  42  36 NW7       30.10R
NEBRASKA CITY  CLEAR     66  29  25 CALM      30.08S
BEATRICE       CLEAR     64  46  51 SW5       30.10S
FALLS CITY     CLEAR     64  48  56 SW6       30.08S

...NORTHERN KANSAS...

CITY           SKY/WX    TMP DP  RH WIND       PRES   REMARKS
GOODLAND       CLEAR     64  40  41 CALM      30.23R
HILL CITY      CLEAR     62  51  67 CALM      30.17R
NORTON         CLEAR     68  36  30 CALM      30.15S
PHILLIPSBURG   CLEAR     66  43  42 CALM      30.15R
SMITH CENTER   CLEAR     63  43  48 S6        30.14R
HAYS           CLEAR     66  39  37 E7        30.16R
RUSSELL        CLEAR     63  48  58 SE9       30.15S
CONCORDIA      CLEAR     62  46  55 SW10      30.13F
SALINA         CLEAR     64  49  57 S6        30.15F
TOPEKA         CLEAR     64  48  56 SW6       30.13F



USA.gov is the U.S. government's official web portal to all federal, state and local government web resources and services.